Powrót do katalogu

OPS 4682 DEB

AktywnyPO
NORAD 55114·DEBRIS·🇺🇸 United States

Wystrzelony Apr 3, 1965 z Vandenberg Space Force Base

Loading…

Następne Przeloty (najbliższe 24 godziny)

TLE

ŚwieżeSource: Space-Track

Epoka: Sep 13, 2026, 18:38 UTC

1 55114U 65027HD  26256.77660681  .00000101  00000-0  32350-3 0  9996
2 55114  90.2700  20.3007 0032517 215.8550 144.0389 12.97421303559372

Śledź OPS 4682 DEB w czasie rzeczywistym z AllMySat

Download on the App Store